Regional Weather Roundup
Issued by NWS

Home | Current Version | Previous Version | Graphics & Text | Print | Product List | Glossary On
Versions: 1 2 3 4 5 6 7 8 9 10 11 12 13 14 15 16 17 18 19 20 21 22 23 24 25 26 27 28 29 30 31 32 33 34 35 36 37 38 39 40 41 42 43 44 45 46 47 48 49 50
000
ASUS43 KMPX 230010
RWRMN
WEATHER ROUNDUP FOR MINNESOTA
NATIONAL WEATHER SERVICE TWIN CITIES/CHANHASSEN MN
700 PM CDT FRI JUL 22 2016


NOTE: "FAIR" INDICATES FEW OR NO CLOUDS BELOW 12,000 FEET WITH NO
SIGNIFICANT WEATHER AND/OR OBSTRUCTIONS TO VISIBILITY. N/A MEANS
CURRENT SKY AND/OR WEATHER CONDITIONS ARE NOT AVAILABLE.

MNZ060>063-068>070-230100-
   Twin Cities Metro

CITY           SKY/WX    TMP DP  RH WIND       PRES   REMARKS
TWIN CITIES    MOSUNNY   93  58  30 SE7       29.97F HX  92
6HR MIN TEMP:  93; 6HR MAX TEMP:  97;

ST PAUL        SUNNY     93  63  36 NE7       29.97S HX  94
CRYSTAL        SUNNY     93  58  30 NE7       29.96F HX  92
BLAINE         MOSUNNY   93  61  33 NE5       29.99S HX  93
LAKEVILLE      SUNNY     86  70  58 CALM      29.99F HX  90
EDEN PRAIRIE   SUNNY     94  55  26 SE5       29.97F HX  92
6HR MIN TEMP:  93; 6HR MAX TEMP:  97;

LAKEVILLE      SUNNY     86  70  58 CALM      29.99F HX  90
SOUTH ST PAUL  SUNNY     91  60  34 S5        29.97F HX  91
LAKE ELMO      FAIR      90  64  43 N5        30.00S HX  91
$$
MNZ001>005-007-008-013>017-022>024-027-028-230100-
   Northwest Minnesota

CITY           SKY/WX    TMP DP  RH WIND       PRES   REMARKS
BEMIDJI        CLOUDY    82  59  44 NW6       30.01F
HALLOCK        SUNNY     81  63  54 N3        29.98F
ROSEAU         SUNNY     81  64  57 W8        29.99F
WARROAD        SUNNY     82  63  51 W7        29.99F
THIEF RVR FALL CLOUDY    79  63  57 NE5       29.99F
CROOKSTON      CLOUDY    81  66  61 NE5       29.97F
FOSSTON        CLOUDY    81  70  69 CALM      30.00F
DETROIT LAKES  MOSUNNY   84  70  61 N5        30.00F
MOORHEAD       MOSUNNY   84  72  65 NE8       29.95F
PARK RAPIDS    SUNNY     88  66  48 N6        29.99F HX  90
MAHNOMEN       FAIR      82  65  56 N6        29.99F
$$
MNZ006-009>011-018-025>026-230100-
   North Central Minnesota

CITY           SKY/WX    TMP DP  RH WIND       PRES   REMARKS
BAUDETTE       SUNNY     82  59  45 W8        29.99F
FLAG ISLAND    SUNNY     79  61  53 NW13      29.97F
INTL FALLS     SUNNY     81  56  42 W8        29.98F
6HR MIN TEMP:  81; 6HR MAX TEMP:  84;

WASKISH        SUNNY     81  64  57 W6        30.00F
BIG FORK       SUNNY     82  55  39 W5        30.01S
LONGVILLE      CLOUDY    84  61  45 CALM      30.01F
GRAND RAPIDS   CLOUDY    84  56  38 NW7       30.03S
CRANE LAKE     SUNNY     82  52  34 NW2       29.99S
ORR            SUNNY     82  55  39 CALM      29.97S
COOK           SUNNY     82  55  39 NW6       29.99S
WALKER         FAIR      83  63  50 CALM      30.00F
$$
MNZ012-019>021-037-230100-
   Northeast Minnesota

CITY           SKY/WX    TMP DP  RH WIND       PRES   REMARKS
DULUTH         CLOUDY    83  60  45 NW7       30.00S
6HR MIN TEMP:  83; 6HR MAX TEMP:  90;

ELY            SUNNY     82  52  34 NW9       29.98F
HIBBING        SUNNY     82  58  43 W8        30.00S
EVELETH        SUNNY     83  54  36 W8        30.01S
DULUTH HARBOR  MOSUNNY   90  61  37 NW6       29.95F
TWO HARBORS    MOSUNNY   88  64  45 W6        29.95S
SILVER BAY     SUNNY     86  61  42 CALM      29.94S
GRAND MARAIS     N/A     86  46  24 VRB3      29.90R
G MARAIS ARPRT SUNNY     79  46  31 W7        29.99R
$$
MNZ029>031-032-039>041-046>048-054>057-064-230100-
   West Central Minnesota

CITY           SKY/WX    TMP DP  RH WIND       PRES   REMARKS
FERGUS FALLS   CLOUDY    88  66  48 CALM      29.95F HX  90
WHEATON        CLOUDY    84  75  74 E7        29.95F HX  92
MORRIS         CLOUDY    82  72  69 E6        29.93F
ALEXANDRIA     CLOUDY    85  66  53 E5        29.99F
ELBOW LAKE     FAIR      85  70  59 E5        29.96F
WADENA         MOSUNNY   82  70  65 CALM      29.99F
GLENWOOD       PTSUNNY   82  70  65 NE5       29.99F
APPLETON       CLOUDY    84  68  58 E6        29.92F
BENSON         CLOUDY    84  64  51 E5        29.95F
ORTONVILLE     CLOUDY    82  66  57 E9        29.92F
MADISON        CLOUDY    81  66  61 SE10      29.91F
WILLMAR        FAIR      86  70  58 E9        29.97F HX  90
$$
MNZ033>034-036-042>043-049>051-058-059-230100-
   Central Minnesota

CITY           SKY/WX    TMP DP  RH WIND       PRES   REMARKS
ST CLOUD       CLOUDY    87  69  54 CALM      29.98F HX  91
6HR MIN TEMP:  87; 6HR MAX TEMP:  93;

SAUK CENTRE    FAIR      85  68  57 E3        29.98F
PAYNESVILLE    MOSUNNY   85  65  51 SE6       29.98F
AITKIN         MOSUNNY   90  66  45 CALM      29.98F HX  92
PINE RIVER     MOSUNNY   84  66  54 NE5       30.03F
BRAINERD       CLOUDY    87  68  52 W5        29.99F HX  90
STAPLES        CLOUDY    84  66  54 CALM      29.99F
LONG PRAIRIE   FAIR      82  73  74 CALM      30.00F
LITTLE FALLS   PTSUNNY   82  72  69 CALM      29.99F
LITCHFIELD     MOSUNNY   88  66  48 E3        29.98F HX  90
BUFFALO        SUNNY     90  65  43 N3        29.99F HX  92
MAPLE LAKE     SUNNY     86  75  68 CALM      30.00F HX  95
$$
MNZ037-044-045-052-053-230100-
   East Central Minnesota

CITY           SKY/WX    TMP DP  RH WIND       PRES   REMARKS
PRINCETON      SUNNY     90  64  43 CALM      29.99F HX  91
MORA           CLOUDY    86  72  62 CALM      30.01F HX  92
CAMBRIDGE      SUNNY     91  68  46 NW1       29.98F HX  95
RUSH CITY      SUNNY     86  71  60 CALM      29.99F HX  92
MOOSE LAKE     PTSUNNY   84  72  65 CALM      29.98S
HINCKLEY       FAIR      84  72  65 W3        29.99F
CLOQUET        MOSUNNY   84  57  39 NW5       30.00S
MCGREGOR       PTSUNNY   86  70  58 CALM      30.00F HX  90
$$
MNZ071>073-080-081-089-090-097-098-230100-
   Southwest Minnesota

CITY           SKY/WX    TMP DP  RH WIND       PRES   REMARKS
MONTEVIDEO     PTSUNNY   82  72  69 S7        29.96F
GRANITE FALLS  MOSUNNY   87  70  57 E3        29.98F HX  92
CANBY          PTSUNNY   83  71  65 E7        29.95F
MARSHALL       MOSUNNY   85  70  60 E7        29.98F
REDWOOD FALLS  SUNNY     85  67  54 E5        29.96F
OLIVIA         CLOUDY    84  63  48 E5        29.96F
PIPESTONE      MOSUNNY   90  75  62 NE6       30.01R HX 100
WINDOM         SUNNY     88  77  70 NE6       29.98F HX 100
WORTHINGTON    SUNNY     86  79  79 E10       29.99F HX  99
JACKSON        MOSUNNY   88  77  70 SE7       29.99F HX 100
TRACY          MOSUNNY   85  75  70 N7        29.99F HX  93
SLAYTON        MOSUNNY   86  77  75 NE6       30.01S HX  96
$$
MNZ065>067-074>077-082>085-091>093-230100-
   South Central Minnesota

CITY           SKY/WX    TMP DP  RH WIND       PRES   REMARKS
MANKATO        SUNNY     88  72  58 NE8       29.98F HX  94
NEW ULM        SUNNY     88  66  48 NE9       29.97F HX  90
ST JAMES       SUNNY     84  75  74 NE6       29.97F HX  92
FAIRMONT       MOSUNNY   84  57  39 SE7       29.98S
GLENCOE        SUNNY     90  72  55 CALM      29.97F HX  96
FARIBAULT      SUNNY     88  72  58 N6        29.99F HX  94
OWATONNA       MOSUNNY   88  75  66 NE3       29.99S HX  97
WASECA         PTSUNNY   86  77  74 E5        30.00S HX  97
ALBERT LEA     MOSUNNY   86  79  79 CALM      29.99S HX  99
$$
MNZ078>079-086>088-094>096-230100-
   Southeast Minnesota

CITY           SKY/WX    TMP DP  RH WIND       PRES   REMARKS
ROCHESTER      MOSUNNY   89  79  72 CALM      30.00S HX 104
6HR MIN TEMP:  85; 6HR MAX TEMP:  90;

RED WING       SUNNY     91  61  35 CALM      29.97S HX  91
STANTON        SUNNY     88  68  51 CALM      29.98S HX  91
DODGE CENTER   PTSUNNY   88  75  66 NE5       30.01R HX  97
WINONA         SUNNY     90  72  55 NE3       29.97R HX  96
AUSTIN         SUNNY     88  77  70 S3        29.99S HX 100
PRESTON        SUNNY     85  76  73 CALM      30.00F HX  95
$$
ABBREVIATIONS USED IN REMARKS
   TC - TEMPERATURES IN CELSIUS
  WCI - WIND CHILL INDEX
   HX - HEAT INDEX
  VSB - VISIBILITY
$$



USA.gov is the U.S. government's official web portal to all federal, state and local government web resources and services.